Flag for Argentina Weather past 2 weeks in Río Gallegos, Santa Cruz, Argentina

Now
43 °F

Clear.


Feels Like: 33 °F
Forecast: 43 / 50 °F
Wind: 26 mph from West

Location: Rio Gallegos Aerodrome

Current Time: Sep 2, 2015 at 1:42:06 AM

Latest Report: Sep 2, 2015 at 12:00 AM


Visibility: 10 mi

Pressure: 29.89 "Hg

Humidity: 76%

Dew point: 36 °F

Location of Río GallegosLocation

Historic Weather in Río Gallegos — Graph

°F

Río Gallegos temperature yesterday

Maximum temperature yesterday: 50 °F (at 1:00 PM)
Minimum temperature yesterday: 36 °F (at 4:00 AM)
Average temperature yesterday: 42 °F

Past Weeks' High & Low Weather Summary

 TemperatureHumidityPressure
High54 °F (Aug 29, 4:00 PM)100% (Aug 22, 10:00 AM)30.21 "Hg (Aug 22, 10:00 AM)
Low25 °F (Aug 21, 5:00 AM)33% (Aug 21, 1:00 PM)28.91 "Hg (Aug 28, 5:00 AM)
Average38 °F76%29.69 "Hg
* Reported Midnight between Aug 17 and Aug 18 — Midnight between Sep 1 and Sep 2, Río Gallegos, Weather by CustomWeather, © 2015

Note: Actual official high and low records may vary slightly from our data, if they occured in-between our weather recording intervals... More about our weather records

Advertising

Río Gallegos weather history for previous 24 hours

 ConditionsComfort  
Time TempWeatherWind HumidityBarometerVisibility
12:00 AM
Wed, Sep 2
43 °FClear.26 mph76%29.89 "Hg10 mi
11:00 PM
Tue, Sep 1
45 °FClear.22 mph53%29.89 "Hg10 mi
10:00 PM43 °FClear.28 mph57%29.89 "Hg10 mi
9:00 PM43 °FClear.28 mph57%29.86 "Hg10 mi
8:00 PM45 °FClear.23 mph46%29.89 "Hg10 mi
6:00 PM45 °FClear.25 mph49%29.89 "Hg10 mi
5:00 PM45 °FSunny.23 mph57%29.92 "Hg10 mi
4:00 PM45 °FSunny.18 mph57%29.95 "Hg10 mi
3:00 PM46 °FSunny.28 mph46%29.98 "Hg10 mi
2:00 PM50 °FSunny.25 mph37%29.98 "Hg10 mi
1:00 PM50 °FSunny.23 mph40%30.01 "Hg10 mi
12:00 PM46 °FSunny.14 mph46%30.04 "Hg10 mi
11:00 AM46 °FSunny.15 mph76%30.07 "Hg10 mi
10:00 AM43 °FSunny.16 mph49%30.09 "Hg10 mi
9:00 AM36 °FSunny.5 mph75%30.09 "Hg10 mi
8:00 AM39 °FSunny.8 mph56%30.09 "Hg10 mi
7:00 AM36 °FClear.No wind70%30.12 "Hg10 mi
6:00 AM36 °FClear.6 mph70%30.12 "Hg10 mi
5:00 AM37 °FClear.8 mph65%30.12 "Hg10 mi
4:00 AM36 °FClear.14 mph70%30.15 "Hg10 mi
3:00 AM37 °FClear.15 mph70%30.15 "Hg10 mi
2:00 AM39 °FClear.18 mph65%30.18 "Hg10 mi
1:00 AM37 °FClear.14 mph70%30.18 "Hg10 mi
Weather by CustomWeather, © 2015

See weather overviewHow to use our weather pages